Location: Unspecified
(0.0000°N, 0.0000°E)
Time: 15:36:17
(UTC+00:00)

STARLINK-35911 - Pass Details

Date: 04 March 2026
Orbit: 268 x 269 km, 53.2° (Epoch: 6 March)

Event Time Altitude Azimuth Distance (km) Brightness Sun altitude
Rises 19:02:10 0° 219° (SW) 1,838 6.0 -12.6°
Reaches altitude 10° 19:04:03 10° 223° (SW) 1,038 4.8 -13.0°
Maximum altitude 19:06:19 59° 304° (WNW) 303 1.5 -13.6°
Enters shadow 19:07:38 21° 19° (NNE) 655 2.8 -13.9°
